Preview of NWS' New Version of Forecast
This preview is not operational and should not be used for support decisions.

Regional Weather Roundup (RWR)

Issued by National Weather Service (NWS)

                            
000
ASUS43 KBIS 250502
RWRND 

NORTH DAKOTA REGIONAL WEATHER ROUNDUP
NATIONAL WEATHER SERVICE BISMARCK ND
1200 AM CDT SUN AUG 25 2019

NOTE: "FAIR" INDICATES FEW OR NO CLOUDS BELOW 12,000 FEET WITH NO
SIGNIFICANT WEATHER AND/OR OBSTRUCTIONS TO VISIBILITY.


NDZ001>003-009>011-017-250600-
NORTHWEST NORTH DAKOTA
  
CITY           SKY/WX    TMP DP  RH WIND       PRES   REMARKS
WILLISTON      FAIR      72  61  68 NW3       29.70F                  
MINOT          TSTM      67  64  90 SE6       29.76F                  
MINOT AFB      LGT RAIN  63  60  93 E10       29.74F                  
$$
 
NDZ018>021-031>035-040>046-250600-
SOUTHWEST NORTH DAKOTA
  
CITY           SKY/WX    TMP DP  RH WIND       PRES   REMARKS
BISMARCK       FAIR      67  61  81 S17G26    29.81F                  
DICKINSON      MOCLDY    69  64  84 S14       29.76F                  
GARRISON         N/A     69  64  84 S18G25    29.76F                  
HETTINGER ARPT FAIR      66  61  84 S13       29.82S                  
$$
 
NDZ004>008-012>016-024-026-027-054-250600-
NORTHEAST NORTH DAKOTA
  
CITY           SKY/WX    TMP DP  RH WIND       PRES   REMARKS
GRAND FORKS    FAIR      67  55  65 S16G29    29.91S                  
DEVILS LAKE    FAIR      69  63  81 S16       29.85S                  
$$
 
NDZ022-023-025-028>030-036>039-047>053-250600-
SOUTHEAST NORTH DAKOTA
  
CITY           SKY/WX    TMP DP  RH WIND       PRES   REMARKS
FARGO          FAIR      66  56  70 SE15G29   29.96S                  
JAMESTOWN      CLEAR     67  61  81 S13G25    29.89F                  
$$